Tracking 31027 objects as of 19-Jul-2025
HD Live streaming from Space Station
objects crossing your sky now

STARLINK-31362

Track STARLINK-31362 now!
10-day predictions
STARLINK-31362 is classified as:


NORAD ID: 58935
Int'l Code: 2024-027E
Perigee: 481.6 km
Apogee: 483.2 km
Inclination: 53.2 °
Period: 94.1 minutes
Semi major axis: 6853 km
RCS: Unknown
Launch date: February 10, 2024
Source: United States (US)
Launch site: AIR FORCE WESTERN TEST RANGE (AFWTR)
Your satellite tracking list
ABS 3
Track 1 satellite(s)




NASA's NSSDC Master Catalog

Two Line Element Set (TLE):
1 58935U 24027E   25199.46798854  .00001264  00000-0  54823-4 0  9991
2 58935  53.1616 317.8685 0001157  74.9431 285.1697 15.30186594 81463
Source of the keplerian elements: AFSPC